Wind_Speed
15 16 15 15 15 14 13 12 12 12 12 12 12 12 12 12 12 12 12 11 11 11 12 11 12 11 10 10 10 9 8 8 8 8 9 9 8 8 8 8 8 8 8
17 17 17 16 15 15 14 13 13 13 13 13 13 13 13 13 13 13 13 13 12 12 12 11 12 11 11 11 10 10 9 9 8 8 8 8 9 8 8 9 9 9 9
18 18 18 17 16 15 15 15 14 14 14 14 14 13 14 14 15 15 14 14 13 13 12 12 12 11 11 11 11 10 10 10 10 9 9 9 8 9 9 9 10 9 9
18 18 18 17 17 16 15 15 15 15 15 15 14 14 15 15 15 16 15 15 15 15 14 12 12 11 11 11 11 11 11 11 11 11 11 10 10 10 10 11 10 10 10
20 19 18 17 17 17 17 17 17 17 17 17 16 16 16 17 17 16 16 16 16 16 15 14 13 13 12 13 13 13 12 12 12 12 13 13 12 12 12 12 12 12 11
21 20 20 19 19 19 18 19 19 18 18 18 18 17 18 18 18 18 17 17 17 17 16 16 15 15 15 14 14 14 14 14 14 14 13 13 13 13 13 13 13 13 12
23 22 21 21 20 20 20 20 19 19 19 19 19 19 19 20 20 20 19 18 18 18 18 17 16 16 16 16 16 15 15 15 15 15 15 14 14 14 14 15 14 14 13
24 23 22 22 22 21 22 21 21 21 21 21 21 20 20 21 21 20 20 19 19 18 18 18 18 18 18 18 17 17 17 17 17 16 16 16 16 16 15 15 15 15 15
23 23 23 23 23 23 23 24 24 23 22 23 23 22 22 22 22 21 20 20 20 20 20 20 20 19 19 19 19 18 18 18 18 18 17 17 17 16 15 15 16 16 15
23 25 25 24 24 23 24 25 26 25 25 25 25 24 24 24 23 22 23 22 22 21 21 21 21 21 21 21 20 20 19 20 20 20 19 19 18 18 17 17 16 17 17
25 26 26 25 26 25 25 26 26 26 26 26 26 26 25 25 25 24 24 24 24 24 23 22 22 22 22 22 22 22 21 21 21 21 21 20 20 19 19 18 18 18 19
26 27 27 27 27 27 26 26 26 26 26 26 26 26 26 26 26 25 25 25 24 24 24 24 23 23 22 22 23 23 23 22 21 21 21 21 20 20 20 20 20 20 21
27 27 26 27 27 26 26 26 25 26 26 26 26 26 26 26 26 25 25 25 25 25 25 25 25 25 24 23 23 23 23 23 23 23 22 22 22 21 21 21 22 22 22
28 28 28 27 26 26 25 25 25 25 24 25 26 26 26 26 26 25 25 26 26 26 26 27 26 25 25 25 24 24 24 24 24 24 24 23 23 23 22 22 23 22 22
27 27 27 27 27 26 25 26 25 25 25 26 26 26 26 25 25 25 26 26 27 27 27 27 26 25 25 25 25 24 24 25 24 25 25 25 25 25 25 24 23 23 23
29 29 28 28 27 26 26 26 26 27 27 26 26 26 25 25 25 25 25 26 26 27 27 27 27 27 26 26 25 25 25 26 26 25 25 25 25 25 25 25 25 25 24
29 29 30 29 29 27 26 26 26 27 27 26 26 26 26 26 26 26 26 25 25 26 26 27 27 26 26 26 27 27 25 25 25 25 25 25 25 26 26 25 25 25 25
28 28 27 27 28 28 27 27 27 27 27 27 27 27 27 26 26 27 26 26 26 26 26 26 26 26 26 26 26 27 25 25 25 25 25 25 25 26 26 25 25 25 25
30 29 29 29 28 27 27 28 28 28 28 28 27 27 26 26 27 27 27 27 27 26 27 27 27 26 26 26 26 27 26 26 26 25 25 25 26 27 27 26 26 26 26
29 29 29 29 28 28 28 28 28 29 30 30 28 27 27 27 27 27 27 27 27 27 27 27 27 27 26 26 26 26 27 26 26 25 25 26 27 27 27 27 27 27 27
29 29 29 28 28 28 28 28 29 29 29 29 28 28 28 28 28 28 28 28 27 27 27 26 26 26 25 25 25 26 27 27 27 27 26 27 27 27 28 28 27 27 27
30 29 29 28 28 28 28 28 28 28 28 28 28 28 28 28 28 28 29 29 28 28 27 27 26 25 25 25 25 26 26 27 27 28 28 27 27 28 28 28 28 28 28
29 29 28 29 29 28 28 28 28 28 28 28 29 29 29 28 29 29 29 28 27 27 27 27 26 25 25 25 26 26 27 26 26 27 27 27 27 28 28 29 29 29 29
28 28 29 29 28 28 29 28 28 28 29 29 29 30 29 29 29 29 29 28 27 26 26 25 25 26 25 26 26 27 27 27 27 28 27 27 27 28 29 29 29 29 30
27 28 28 28 27 27 28 28 28 28 27 27 28 29 28 28 28 28 28 27 27 26 26 25 26 27 27 26 26 27 27 27 27 27 27 27 27 28 28 29 29 29 29
28 28 28 28 27 27 27 27 27 27 27 27 26 26 27 27 28 28 27 26 26 26 26 26 27 27 27 27 27 26 26 26 27 27 27 27 28 28 28 28 28 28 29
Wind_Direction
283 286 291 295 297 298 299 298 296 300 305 307 309 307 306 308 309 310 308 311 309 313 313 308 305 303 303 300 299 296 291 291 293 294 294 291 284 279 281 285 283 281 280
279 281 285 289 291 293 293 294 293 294 296 300 305 305 301 301 302 306 305 309 306 305 307 308 305 307 301 297 294 294 293 289 289 293 294 295 290 286 287 291 291 290 291
277 278 279 283 285 287 289 289 288 289 290 294 297 300 302 302 302 303 303 307 309 305 303 303 303 305 301 298 292 290 289 292 293 291 290 290 293 294 291 296 299 296 295
274 276 278 280 281 283 284 285 284 284 285 288 291 294 298 300 301 299 299 301 304 305 303 297 298 301 298 294 294 290 286 288 293 291 288 286 286 289 288 291 295 298 297
277 276 276 278 279 280 281 280 281 280 282 284 285 288 291 293 296 298 298 295 298 301 298 295 292 292 292 291 290 290 286 286 287 289 290 287 284 284 285 286 289 292 296
276 275 275 277 278 279 279 279 278 278 280 282 285 285 287 289 291 293 293 293 293 295 295 294 292 288 289 288 288 286 285 281 284 287 287 285 282 282 286 286 286 289 293
272 273 274 277 277 277 277 277 276 276 278 279 282 284 284 285 288 289 289 290 290 291 293 295 290 290 289 287 284 281 281 281 282 284 286 283 282 282 284 286 284 284 289
270 271 273 276 276 277 276 276 274 274 276 277 277 280 281 283 286 287 286 288 288 288 291 291 290 289 287 285 283 280 281 281 282 281 283 281 282 284 283 282 283 284 287
271 270 270 273 274 276 275 275 275 274 274 274 274 276 278 282 283 283 285 285 286 288 288 288 289 289 287 284 284 283 280 281 280 281 282 282 281 282 281 282 282 285 286
267 269 270 272 275 277 274 274 273 273 273 272 273 274 277 280 282 282 282 283 283 284 284 284 286 285 284 282 282 282 280 279 278 278 279 282 284 282 280 282 286 286 286
270 271 273 276 276 277 275 273 272 272 273 274 274 274 275 278 280 280 282 282 281 281 282 283 284 283 281 280 279 279 279 279 278 276 277 279 280 280 281 283 283 282 284
269 271 275 277 277 277 275 274 274 274 274 274 276 275 277 279 279 280 281 281 281 280 279 281 284 284 282 280 278 277 276 277 278 277 277 278 278 280 280 281 282 283 284
272 271 273 277 276 275 274 273 274 275 274 274 276 275 276 279 278 280 283 283 283 283 283 283 282 282 280 281 281 277 275 275 276 277 278 278 279 279 279 281 282 282 282
271 271 271 275 275 275 273 272 274 273 273 275 276 276 277 278 279 280 282 283 284 284 285 284 284 282 279 279 279 278 275 274 276 276 277 278 279 279 280 281 281 281 282
273 273 273 275 275 274 273 272 272 275 275 274 274 276 277 278 279 280 281 282 283 285 284 284 282 281 281 280 277 278 278 275 274 275 275 274 276 278 280 280 279 281 284
275 276 275 274 274 276 274 273 274 274 273 271 273 276 278 280 280 280 280 281 282 282 282 282 281 279 279 279 277 277 279 278 275 275 274 273 275 277 278 278 278 280 281
274 276 278 279 274 274 274 272 272 272 272 274 274 276 277 277 279 279 279 280 280 280 280 279 279 278 278 278 276 276 277 277 276 273 273 273 275 276 276 276 278 278 279
275 276 276 276 275 274 274 274 273 273 273 274 274 275 277 276 278 279 279 279 279 279 279 279 278 278 277 277 276 275 274 275 274 273 273 273 275 276 276 277 278 278 278
274 275 274 276 276 274 273 273 272 273 273 273 273 273 275 277 278 278 278 278 278 278 278 278 277 276 276 276 276 276 272 271 272 273 273 274 274 276 276 277 277 277 277
276 275 275 273 274 274 274 274 273 272 271 271 272 272 273 275 276 277 278 278 277 277 278 276 275 275 275 277 277 275 271 270 270 272 274 275 275 276 276 276 276 276 276
276 277 276 275 275 275 274 274 274 273 271 270 271 272 274 275 274 275 276 278 277 276 276 276 276 277 277 278 277 274 271 270 271 272 274 274 274 275 276 276 276 276 276
275 276 276 275 276 276 273 273 272 271 271 271 271 270 272 274 274 274 275 275 276 276 276 275 275 275 277 276 276 275 274 274 272 272 274 273 273 274 276 276 276 277 277
277 277 277 276 275 275 274 273 272 271 270 271 269 268 272 273 274 273 273 273 273 275 276 275 273 273 275 275 275 274 275 275 274 274 276 276 275 276 277 279 278 277 277
278 278 278 278 274 274 274 274 272 271 270 271 270 270 273 273 273 272 272 273 272 273 274 273 272 273 275 275 275 276 276 275 274 275 276 278 279 280 281 282 281 280 279
277 279 281 281 277 276 274 273 271 271 271 271 271 270 273 272 271 271 272 272 271 271 272 272 272 272 274 275 275 278 277 276 276 276 275 277 280 281 281 282 283 283 282
276 277 279 279 279 277 274 272 271 272 272 271 269 269 271 272 270 270 270 269 270 270 271 273 273 273 276 277 277 276 277 277 276 276 277 278 280 281 281 281 282 284 284
Height
5879 5878 5878 5878 5877 5877 5876 5876 5875 5875 5875 5874 5874 5873 5873 5872 5871 5870 5869 5868 5868 5867 5867 5866 5865 5865 5864 5864 5863 5863 5862 5862 5861 5861 5860 5860 5860 5859 5859 5860 5860 5860 5860
5876 5875 5875 5875 5875 5874 5874 5874 5874 5873 5873 5872 5872 5871 5870 5870 5869 5869 5868 5867 5866 5866 5865 5865 5864 5863 5863 5862 5862 5861 5861 5860 5859 5859 5859 5859 5859 5858 5858 5858 5858 5858 5857
5873 5873 5872 5872 5872 5872 5871 5871 5871 5871 5871 5870 5870 5869 5868 5867 5867 5866 5866 5865 5864 5864 5863 5863 5862 5862 5861 5861 5860 5859 5859 5859 5858 5858 5858 5857 5857 5857 5857 5856 5856 5856 5856
5868 5869 5869 5869 5869 5869 5868 5868 5868 5868 5868 5868 5867 5867 5866 5865 5865 5863 5863 5863 5863 5862 5861 5861 5860 5860 5859 5859 5858 5858 5858 5857 5856 5856 5856 5855 5855 5855 5855 5855 5854 5854 5854
5865 5865 5865 5865 5866 5865 5865 5865 5865 5865 5865 5865 5864 5864 5863 5863 5862 5861 5861 5861 5860 5860 5859 5858 5858 5857 5857 5857 5856 5856 5855 5855 5855 5854 5854 5853 5853 5853 5853 5853 5852 5852 5851
5862 5862 5862 5862 5862 5862 5862 5862 5862 5862 5861 5861 5861 5861 5860 5860 5859 5859 5858 5858 5857 5857 5856 5855 5855 5854 5854 5854 5854 5853 5853 5852 5852 5852 5851 5851 5851 5850 5850 5850 5850 5849 5848
5858 5857 5857 5857 5858 5858 5857 5857 5857 5858 5857 5857 5857 5857 5857 5856 5856 5855 5855 5855 5854 5853 5853 5852 5851 5851 5851 5851 5850 5850 5850 5850 5849 5849 5848 5848 5848 5847 5847 5847 5846 5846 5846
5852 5853 5852 5853 5853 5853 5853 5853 5852 5853 5853 5853 5853 5853 5853 5852 5852 5852 5851 5851 5851 5850 5849 5849 5848 5848 5848 5847 5847 5847 5846 5846 5846 5846 5845 5844 5844 5844 5843 5843 5843 5843 5842
5847 5847 5846 5847 5847 5847 5847 5847 5847 5847 5848 5848 5848 5848 5848 5848 5848 5847 5847 5847 5847 5846 5846 5845 5844 5844 5843 5843 5843 5842 5842 5842 5842 5842 5841 5841 5840 5840 5840 5839 5839 5839 5839
5841 5841 5841 5841 5841 5841 5841 5841 5841 5842 5842 5843 5843 5843 5843 5843 5842 5842 5842 5842 5842 5842 5841 5841 5840 5839 5839 5839 5838 5838 5838 5838 5838 5837 5837 5836 5836 5836 5835 5835 5835 5835 5834
5834 5835 5835 5835 5835 5835 5835 5835 5835 5836 5836 5837 5837 5837 5837 5837 5837 5837 5836 5836 5836 5836 5836 5835 5835 5834 5834 5833 5833 5833 5833 5833 5833 5832 5832 5832 5832 5831 5831 5831 5830 5830 5829
5830 5829 5829 5828 5827 5828 5828 5828 5828 5829 5830 5830 5830 5831 5831 5831 5831 5831 5831 5830 5830 5830 5829 5829 5829 5828 5828 5827 5827 5827 5827 5827 5827 5827 5827 5827 5827 5826 5826 5826 5825 5825 5824
5823 5822 5822 5822 5821 5821 5821 5821 5821 5822 5822 5823 5823 5824 5824 5824 5824 5824 5824 5823 5823 5823 5823 5823 5823 5822 5822 5821 5821 5821 5821 5821 5821 5821 5821 5821 5821 5821 5820 5820 5820 5819 5819
5815 5815 5815 5816 5815 5815 5815 5814 5815 5815 5816 5816 5816 5817 5817 5817 5817 5817 5817 5816 5816 5816 5816 5816 5816 5815 5815 5815 5814 5814 5814 5815 5815 5815 5815 5815 5815 5815 5814 5814 5814 5813 5812
5809 5808 5808 5808 5808 5808 5809 5808 5808 5809 5809 5809 5809 5809 5810 5810 5810 5810 5810 5809 5809 5809 5809 5808 5808 5808 5808 5808 5807 5807 5807 5807 5808 5808 5808 5808 5808 5808 5808 5808 5807 5806 5806
5803 5801 5800 5801 5801 5801 5801 5802 5802 5802 5802 5802 5802 5802 5802 5803 5803 5803 5803 5802 5802 5802 5801 5801 5801 5801 5801 5801 5800 5800 5800 5800 5800 5800 5800 5801 5801 5801 5801 5800 5800 5800 5799
5797 5796 5795 5793 5794 5794 5794 5795 5795 5795 5795 5795 5795 5795 5795 5796 5796 5796 5795 5795 5794 5794 5794 5793 5793 5793 5793 5793 5793 5793 5792 5793 5793 5793 5793 5793 5793 5793 5793 5793 5793 5792 5792
5789 5789 5788 5787 5787 5787 5787 5788 5788 5788 5788 5788 5788 5788 5788 5788 5788 5788 5788 5787 5787 5786 5786 5785 5786 5786 5786 5785 5785 5785 5785 5785 5785 5785 5786 5786 5786 5785 5785 5785 5785 5785 5784
5782 5781 5781 5780 5780 5780 5780 5780 5780 5781 5781 5781 5781 5781 5781 5781 5781 5781 5780 5779 5779 5779 5778 5778 5778 5778 5778 5777 5777 5777 5777 5777 5778 5778 5778 5778 5778 5778 5778 5778 5777 5777 5776
5774 5774 5772 5772 5773 5773 5773 5772 5772 5772 5773 5773 5773 5773 5773 5773 5773 5773 5772 5771 5771 5771 5770 5770 5770 5770 5770 5769 5769 5769 5769 5770 5770 5770 5771 5771 5771 5770 5770 5769 5769 5769 5769
5767 5766 5765 5765 5765 5765 5765 5764 5764 5764 5764 5765 5765 5765 5765 5765 5765 5764 5764 5764 5763 5762 5762 5762 5762 5762 5762 5761 5761 5761 5761 5761 5762 5762 5763 5762 5762 5762 5762 5761 5761 5761 5761
5759 5758 5757 5757 5757 5756 5756 5756 5756 5756 5756 5757 5757 5756 5756 5756 5756 5756 5755 5755 5755 5754 5754 5754 5754 5754 5754 5754 5754 5753 5753 5753 5754 5754 5755 5755 5754 5754 5754 5753 5753 5752 5752
5752 5751 5749 5749 5748 5748 5748 5748 5748 5748 5748 5748 5748 5748 5748 5748 5748 5747 5747 5746 5746 5746 5746 5746 5746 5746 5746 5747 5746 5746 5746 5745 5746 5746 5747 5747 5747 5746 5746 5745 5745 5744 5744
5744 5743 5742 5741 5740 5740 5740 5740 5740 5740 5739 5739 5739 5739 5739 5739 5739 5738 5738 5738 5739 5738 5737 5737 5738 5738 5738 5738 5738 5737 5738 5738 5738 5738 5738 5739 5738 5738 5738 5737 5737 5736 5735
5736 5735 5734 5733 5732 5732 5732 5732 5732 5731 5731 5730 5730 5730 5731 5731 5730 5730 5731 5731 5731 5731 5730 5730 5730 5730 5730 5730 5729 5729 5729 5730 5730 5730 5730 5730 5730 5730 5729 5729 5728 5728 5727
5728 5727 5727 5726 5725 5724 5724 5724 5724 5723 5723 5722 5722 5723 5723 5723 5722 5723 5723 5723 5723 5723 5723 5722 5722 5722 5722 5722 5722 5722 5721 5721 5721 5721 5722 5722 5722 5721 5721 5720 5720 5719 5718